Powrót do katalogu

SL-8 R/B

AktywnyPO
NORAD 15078·ROCKET BODY·🇷🇺 Russia

Wystrzelony Jun 27, 1984 z Plesetsk Cosmodrome

Loading…

Następne Przeloty (najbliższe 24 godziny)

TLE

ŚwieżeSource: Space-Track

Epoka: Sep 14, 2026, 19:31 UTC

1 15078U 84067B   26257.81324470  .00000125  00000-0  10980-3 0  9996
2 15078  82.9512 105.7972 0024950 355.0307   5.0599 13.77605370121252

Śledź SL-8 R/B w czasie rzeczywistym z AllMySat

Download on the App Store